[[{"header":{"parameterUnit":"m.s-1","parameterCategory":2,"la1":30.2991,"la2":30.254,"lo1":-89.0895,"lo2":-89.0444,"dx":0.0017,"dy":0.0017,"nx":28,"ny":28,"refTime":"2022-12-09T15:00:00:Z","depth":"0","parameterNumber":2,"parameterNumberName":"U-component_of_CURRENTS"},"data":[0,0,0,0,0,0,0,0,0,0,0,0,0,0,0,0,0,0,0,0,0,0,0,0,0,0,0,0,0,0,0,0,0,0,0,0,0,0,0,0,0,0,0,0,0,0,0,0,0,0,0,0,0,0,0,0,0,0,0.3716,0.3717,0,0.3809,0.381,0.3811,0.3837,0.3836,0.3836,0.3835,0.3862,0.3863,0.3864,0,0,0,0,0,0,0,0,0,0,0,0,0,0.3565,0.3567,0.3716,0.3717,0.3719,0.3809,0.381,0.3811,0.3837,0.3836,0.3836,0.3835,0.3861,0.3863,0.3864,0,0,0,0,0,0,0,0,0,0,0,0,0,0.364,0.3568,0.3716,0.3743,0.3747,0.3809,0.381,0.3812,0.3837,0.3836,0.3836,0.3835,0.3861,0.3862,0.3864,0.3886,0,0,0.3869,0.387,0,0,0,0,0,0,0,0,0.3636,0.3645,0.3738,0.3742,0.3746,0.3812,0.3767,0.3834,0.3837,0.3801,0.3835,0.3835,0.384,0.3844,0.3861,0.3887,0.3888,0.3869,0.387,0.3871,0.3871,0,0,0,0,0,0,0,0.363,0.3642,0.3751,0.374,0.3744,0.3753,0.3763,0.378,0.382,0.3804,0.3807,0.382,0.3842,0.386,0.3862,0.3888,0.3869,0.387,0.3871,0.3872,0.4011,0.4014,0,0,0,0,0,0,0.3623,0.3637,0.3748,0.3754,0.369,0.3756,0.3767,0.379,0.3822,0.3827,0.382,0.3821,0.3857,0.386,0.3863,0.3949,0.3871,0.3872,0.3873,0.4009,0.4012,0.4015,0,0,0,0,0,0,0.362,0.3633,0.3745,0.3698,0.3713,0.376,0.3785,0.3792,0.3815,0.3835,0.3838,0.3836,0.3857,0.386,0.3902,0.3948,0.3873,0.3874,0.4005,0.401,0.4014,0.4084,0,0,0,0,0,0,0.3615,0.3631,0.3647,0.3698,0.3716,0.3797,0.3786,0.3795,0.3825,0.3826,0.385,0.3851,0.3857,0.3899,0.3903,0.3949,0.3875,0.4002,0.4007,0.4012,0.4078,0.409,0.41,0,0,0,0,0,0.361,0.3642,0.3648,0.3661,0.3736,0.3799,0.3809,0.3838,0.3826,0.3852,0.387,0.3851,0.3935,0.3903,0.3906,0.3953,0.3999,0.4006,0.4012,0.4073,0.4087,0.41,0,0,0,0,0,0,0.3583,0.3649,0.3657,0.3706,0.3752,0.3804,0.3829,0.3841,0.3876,0.3872,0.3878,0.3883,0.3942,0.3939,0.3903,0.4013,0.3968,0.3975,0.4013,0.4027,0.4037,0.4085,0.3877,0,0,0,0,0,0.3585,0.3629,0.3683,0.3724,0.3743,0.3782,0.3809,0.3831,0.3868,0.3882,0.3898,0.3925,0.3972,0.3989,0.4023,0.4071,0.4139,0.4108,0.4119,0.4128,0.4173,0.4342,0.4374,0.4035,0.4035,0.4035,0,0,0.3581,0.3628,0.3648,0.3722,0.3752,0.3805,0.3797,0.3845,0.3898,0.3878,0.3941,0.3961,0.3995,0.4063,0.4089,0.4063,0.4254,0.4136,0.4143,0.4184,0.4352,0.4386,0.4415,0.404,0.4039,0.4038,0,0,0.3602,0.3638,0.3678,0.3727,0.3788,0.3823,0.3837,0.3891,0.3923,0.3987,0.3996,0.4058,0.4097,0.4157,0.4186,0.428,0.4309,0.427,0.4361,0.4524,0.4554,0.4581,0.4683,0.4719,0.4272,0.4272,0.4272,0,0.3593,0.3664,0.3698,0.3755,0.3805,0.3831,0.3889,0.3934,0.3997,0.4048,0.4018,0.4157,0.4164,0.4295,0.4324,0.431,0.4385,0.43,0.4541,0.457,0.4597,0.4695,0.4734,0.4276,0.4276,0.4275,0.4275,0,0.3645,0.3708,0.3738,0.3824,0.3876,0.3936,0.4,0.4053,0.4083,0.4141,0.4265,0.4301,0.4392,0.4398,0.4386,0.4573,0.4557,0.4536,0.4508,0.4636,0.4729,0.4769,0.4282,0.4281,0.428,0.4279,0,0,0.362,0.3749,0.3762,0.3834,0.3925,0.3988,0.407,0.4184,0.4274,0.4333,0.4462,0.4548,0.4573,0.4611,0.4613,0.4742,0.4963,0.4718,0.4724,0.482,0.5302,0.5178,0.5209,0.4989,0.4997,0.5003,0.5281,0,0.3656,0.3788,0.3832,0.3964,0.4048,0.4107,0.4198,0.4302,0.4381,0.4505,0.4585,0.4701,0.4652,0.4703,0.4828,0.4942,0.5076,0.4889,0.5165,0.5173,0.5051,0.5254,0.5052,0.5274,0.5319,0.5326,0.533,0,0.3703,0.38,0.3934,0.4094,0.413,0.4205,0.4379,0.446,0.4621,0.4682,0.4807,0.4861,0.5048,0.4977,0.5284,0.5167,0.5255,0.5331,0.5343,0.5243,0.5126,0.5162,0.5344,0.517,0.5391,0.5386,0.5382,0,0.3733,0.3878,0.4002,0.4057,0.4224,0.4298,0.4376,0.4529,0.4626,0.4807,0.4901,0.5098,0.5209,0.5391,0.5494,0.5436,0.5811,0.5748,0.5725,0.5714,0.5608,0.5574,0.5662,0.6003,0.6002,0.6001,0.6001,0,0.3799,0.3912,0.4035,0.4118,0.4272,0.4354,0.4515,0.4612,0.4761,0.4903,0.4997,0.5141,0.5329,0.5514,0.5607,0.5786,0.5915,0.5813,0.5819,0.5617,0.5582,0.5472,0.5378,0.6012,0.6009,0.6007,0.6006,0,0.3886,0.3944,0.4114,0.4268,0.4305,0.4433,0.4571,0.468,0.4814,0.4997,0.5063,0.5256,0.5505,0.5649,0.5939,0.5925,0.594,0.6116,0.5823,0.5789,0.5574,0.549,0.5454,0.5303,0.6196,0.6195,0.6194,0,0.3981,0.407,0.422,0.4269,0.4348,0.4493,0.457,0.4703,0.4804,0.5063,0.5153,0.5415,0.5542,0.587,0.5956,0.6126,0.5937,0.5996,0.5855,0.5598,0.5513,0.5274,0.5132,0.574,0.5736,0.5732,0.5729,0,0.4155,0.4183,0.4275,0.4356,0.4437,0.4538,0.465,0.4716,0.488,0.501,0.5171,0.5288,0.5592,0.5651,0.5835,0.5912,0.5685,0.5926,0.5787,0.5293,0.4925,0.4764,0.5471,0.5698,0.5701,0.5703,0.5705,0.5706,0.4261,0.4312,0.4337,0.4418,0.4479,0.4501,0.4523,0.4614,0.4701,0.4821,0.5055,0.5157,0.5369,0.5596,0.5607,0.5496,0.5493,0.5377,0.5341,0.5156,0.4868,0.5466,0.5598,0.5601,0.5603,0.5605,0.5606,0,0.4308,0.4294,0.4371,0.4378,0.439,0.4446,0.4499,0.4462,0.4457,0.466,0.4758,0.4917,0.4978,0.5109,0.5124,0.4946,0.4717,0.4814,0.4461,0.4387,0.5066,0.4899,0.473,0.473,0.473,0.473,0.4731,0.4731,0.431,0.4299,0.429,0.4248,0.4254,0.4181,0.4168,0.4123,0.4197,0.4183,0.4252,0.4409,0.4629,0.4743,0.4592,0.4483,0.4141,0.3953,0.3939,0.443,0.4478,0.4524,0.4346,0.4063,0.4063,0.3084,0.3077,0.3071]},{"header":{"parameterUnit":"m.s-1","parameterCategory":2,"la1":30.2991,"la2":30.254,"lo1":-89.0895,"lo2":-89.0444,"dx":0.0017,"dy":0.0017,"nx":28,"ny":28,"refTime":"2022-12-09T15:00:00:Z","depth":"0","parameterNumber":3,"parameterNumberName":"V-component_of_CURRENTS"},"data":[0,0,0,0,0,0,0,0,0,0,0,0,0,0,0,0,0,0,0,0,0,0,0,0,0,0,0,0,0,0,0,0,0,0,0,0,0,0,0,0,0,0,0,0,0,0,0,0,0,0,0,0,0,0,0,0,0,0,-0.0026,-0.0027,0,-0.0078,-0.0079,-0.008,-0.0125,-0.0125,-0.0126,-0.0126,-0.0199,-0.02,-0.0202,0,0,0,0,0,0,0,0,0,0,0,0,0,-0.002,-0.0019,-0.0026,-0.0027,-0.0027,-0.0078,-0.0079,-0.008,-0.0125,-0.0125,-0.0126,-0.0126,-0.0198,-0.02,-0.0202,0,0,0,0,0,0,0,0,0,0,0,0,0,-0.0044,-0.0019,-0.0026,-0.0054,-0.0057,-0.0078,-0.0079,-0.008,-0.0125,-0.0126,-0.0126,-0.0126,-0.0198,-0.02,-0.0202,-0.0209,0,0,-0.021,-0.0211,0,0,0,0,0,0,0,0,-0.0043,-0.0045,-0.005,-0.0052,-0.0055,-0.0093,-0.0103,-0.0123,-0.0125,-0.0102,-0.0126,-0.0127,-0.0164,-0.0169,-0.0181,-0.0212,-0.0215,-0.021,-0.0212,-0.0213,-0.0214,0,0,0,0,0,0,0,-0.0041,-0.0043,-0.0049,-0.005,-0.0053,-0.0082,-0.0086,-0.0108,-0.0132,-0.0104,-0.0107,-0.0108,-0.0166,-0.0178,-0.0183,-0.0217,-0.021,-0.0212,-0.0214,-0.0215,-0.0219,-0.0218,0,0,0,0,0,0,-0.0026,-0.0041,-0.0048,-0.0051,-0.0047,-0.0081,-0.0086,-0.0083,-0.0131,-0.0138,-0.0108,-0.011,-0.0174,-0.018,-0.0186,-0.0145,-0.0213,-0.0215,-0.0217,-0.0221,-0.0219,-0.0218,0,0,0,0,0,0,-0.0026,-0.0026,-0.0046,-0.0046,-0.005,-0.008,-0.0077,-0.0084,-0.0092,-0.0134,-0.0142,-0.0109,-0.0174,-0.0182,-0.0195,-0.0151,-0.0216,-0.0219,-0.0222,-0.022,-0.0218,-0.0098,0,0,0,0,0,0,-0.0025,-0.0025,-0.0023,-0.0044,-0.0049,-0.0045,-0.0077,-0.0084,-0.0092,-0.0095,-0.0137,-0.0145,-0.0175,-0.0191,-0.0197,-0.0155,-0.022,-0.0224,-0.0221,-0.0219,-0.0103,-0.0092,-0.0082,0,0,0,0,0,-0.0025,-0.0008,-0.0023,-0.0024,-0.0043,-0.0044,-0.0049,-0.0075,-0.0091,-0.0086,-0.0115,-0.0143,-0.0179,-0.0192,-0.02,-0.0157,-0.0225,-0.0222,-0.0219,-0.0108,-0.0094,-0.0082,0,0,0,0,0,0,0.0006,-0.0012,-0.0028,-0.0016,-0.0026,-0.0051,-0.005,-0.0067,-0.0087,-0.0093,-0.0135,-0.0143,-0.0135,-0.0168,-0.0181,-0.0152,-0.0203,-0.0201,-0.0116,-0.0103,-0.0092,-0.0022,-0.0223,0,0,0,0,0,0.0012,0.0012,-0.0004,0.0005,0.0002,-0.0024,-0.003,-0.0044,-0.0063,-0.0073,-0.0101,-0.0125,-0.0128,-0.0134,-0.0153,-0.0143,-0.0128,-0.0119,-0.0108,-0.0098,-0.0047,0.002,0.0044,-0.0207,-0.0207,-0.0208,0,0,0.0029,0.0017,0.0018,0.001,-0.0003,0.0017,-0.0029,-0.0028,-0.0002,-0.0077,-0.006,-0.0093,-0.0119,-0.0102,-0.01,-0.0123,-0.0029,-0.0095,-0.0086,-0.0038,0.0027,0.0052,0.0074,-0.0205,-0.0206,-0.0206,0,0,0.0073,0.005,0.007,0.0067,0.0056,0.0045,0.0051,0.0031,0.0029,0.0034,0.0001,0.0008,-0.0029,-0.0013,-0.0015,0.0046,0.0024,0.0021,0.0138,0.0202,0.0225,0.0245,0.0264,0.0285,0.003,0.003,0.003,0,0.0096,0.0127,0.0078,0.0102,0.0123,0.0067,0.0117,0.0103,0.0084,0.0118,0.0055,0.0078,0.0033,0.0114,0.0124,0.0079,0.0091,0.009,0.0221,0.0241,0.026,0.0275,0.0297,0.0036,0.0035,0.0035,0.0034,0,0.0161,0.0189,0.0205,0.0221,0.0226,0.026,0.0243,0.0255,0.0237,0.0242,0.0297,0.0242,0.0277,0.0246,0.0197,0.0313,0.0268,0.0226,0.0198,0.0294,0.0301,0.0322,0.0045,0.0043,0.0041,0.0039,0,0,0.0231,0.0252,0.0264,0.0314,0.0304,0.0335,0.037,0.0429,0.0505,0.0459,0.0573,0.0536,0.052,0.052,0.0465,0.05,0.06,0.0422,0.0422,0.0459,0.072,0.0605,0.0615,0.058,0.0585,0.0589,0.0661,0,0.0317,0.0415,0.0388,0.0498,0.0562,0.0532,0.0586,0.0619,0.0633,0.0713,0.0688,0.075,0.0619,0.0648,0.0666,0.0643,0.0666,0.0584,0.0608,0.0609,0.0512,0.0641,0.0598,0.0653,0.0681,0.0685,0.0687,0,0.0416,0.0474,0.0603,0.0692,0.0717,0.0766,0.0886,0.0921,0.0991,0.1005,0.1055,0.1024,0.109,0.0942,0.098,0.0934,0.0847,0.0794,0.0795,0.0676,0.0536,0.0566,0.0689,0.0394,0.0718,0.0716,0.0713,0,0.0554,0.0639,0.0765,0.0793,0.0865,0.0935,0.0972,0.1039,0.1116,0.1213,0.1296,0.1326,0.138,0.1313,0.1169,0.1102,0.1184,0.1078,0.0889,0.0877,0.0845,0.0822,0.0711,0.1104,0.1104,0.1104,0.1104,0,0.0692,0.0799,0.085,0.0931,0.1082,0.1079,0.1249,0.1279,0.1379,0.1528,0.1471,0.1607,0.1479,0.1478,0.1305,0.1183,0.1298,0.0964,0.092,0.0875,0.0855,0.0595,0.0448,0.1106,0.1106,0.1105,0.1105,0,0.0851,0.0878,0.103,0.1127,0.1159,0.1274,0.1389,0.1513,0.1583,0.1781,0.1828,0.1878,0.1892,0.171,0.1619,0.1381,0.109,0.115,0.1076,0.1021,0.0532,0.0395,0.0317,0.0194,0.0992,0.099,0.0989,0,0.0957,0.1053,0.1174,0.1246,0.1299,0.1441,0.1538,0.1611,0.1741,0.1964,0.2083,0.2151,0.2237,0.2032,0.1641,0.1344,0.1073,0.1039,0.0893,0.0548,0.0364,0.0271,0.0167,0.0887,0.0885,0.0883,0.0882,0,0.1146,0.1177,0.1271,0.1412,0.1526,0.166,0.1804,0.1934,0.2067,0.2259,0.2506,0.2608,0.2401,0.2109,0.1627,0.1378,0.0823,0.0984,0.0694,0.0347,0.0187,0.0031,0.075,0.0865,0.0866,0.0868,0.0868,0.0869,0.1268,0.1343,0.1431,0.1565,0.1688,0.1847,0.1983,0.217,0.2406,0.2714,0.2798,0.3021,0.2517,0.1885,0.1466,0.0626,0.0687,0.0361,0.0248,0.0203,0.0016,0.0661,0.0667,0.0667,0.0668,0.0668,0.0668,0,0.1377,0.143,0.1567,0.1705,0.1846,0.1892,0.213,0.2298,0.2599,0.2943,0.3182,0.31,0.2415,0.1711,0.0582,-0.0011,-0.0196,-0.0307,-0.0439,-0.0493,0.0147,0.0064,-0.0139,-0.0139,-0.0139,-0.0138,-0.0138,-0.0138,0.1433,0.1532,0.1578,0.1788,0.19,0.21,0.224,0.2527,0.2807,0.3232,0.3439,0.357,0.2998,0.0997,-0.0374,-0.0671,-0.1037,-0.1114,-0.1277,-0.0883,-0.0829,-0.0779,-0.0894,-0.1294,-0.1296,-0.187,-0.1876,-0.1881]}],[{"header":{"parameterUnit":"m.s-1","parameterCategory":2,"la1":30.2991,"la2":30.254,"lo1":-89.0895,"lo2":-89.0444,"dx":0.0017,"dy":0.0017,"nx":28,"ny":28,"refTime":"2022-12-09T15:00:00:Z","depth":"2","parameterNumber":2,"parameterNumberName":"U-component_of_CURRENTS"},"data":[0,0,0,0,0,0,0,0,0,0,0,0,0,0,0,0,0,0,0,0,0,0,0,0,0,0,0,0,0,0,0,0,0,0,0,0,0,0,0,0,0,0,0,0,0,0,0,0,0,0,0,0,0,0,0,0,0,0,0.286,0.2862,0,0.292,0.292,0.292,0.2933,0.2934,0.2934,0.2935,0.294,0.294,0.2939,0,0,0,0,0,0,0,0,0,0,0,0,0,0.272,0.2722,0.286,0.2862,0.2864,0.292,0.292,0.292,0.2933,0.2934,0.2934,0.2935,0.294,0.294,0.2939,0,0,0,0,0,0,0,0,0,0,0,0,0,0.277,0.2722,0.286,0.2886,0.2889,0.2921,0.292,0.292,0.2933,0.2934,0.2935,0.2936,0.294,0.294,0.2939,0.2916,0,0,0.2937,0.2937,0,0,0,0,0,0,0,0,0.2767,0.2773,0.288,0.2884,0.2889,0.293,0.2874,0.292,0.2933,0.2904,0.2935,0.2936,0.2939,0.2938,0.2932,0.2916,0.2916,0.2937,0.2936,0.2936,0.2936,0,0,0,0,0,0,0,0.2763,0.2771,0.2872,0.2882,0.2887,0.2883,0.289,0.2881,0.2905,0.2907,0.2911,0.2936,0.2939,0.2932,0.2932,0.2916,0.2937,0.2936,0.2936,0.2936,0.3046,0.305,0,0,0,0,0,0,0.2781,0.2768,0.287,0.2875,0.2842,0.2886,0.2893,0.2906,0.2907,0.2911,0.2935,0.2936,0.2933,0.2933,0.2932,0.3033,0.2936,0.2936,0.2935,0.3043,0.3047,0.3051,0,0,0,0,0,0,0.2777,0.2789,0.2868,0.2833,0.2844,0.2889,0.2903,0.2907,0.2913,0.2931,0.2932,0.2938,0.2934,0.2933,0.2968,0.3028,0.2935,0.2935,0.3039,0.3044,0.3049,0.3152,0,0,0,0,0,0,0.2772,0.2786,0.2799,0.2834,0.2847,0.2894,0.2903,0.2908,0.2932,0.2934,0.2934,0.2935,0.2934,0.2969,0.2967,0.3026,0.2934,0.3035,0.3041,0.3047,0.3145,0.316,0.3173,0,0,0,0,0,0.2767,0.279,0.2798,0.2812,0.2863,0.2895,0.2899,0.2926,0.2931,0.2932,0.2961,0.2935,0.3009,0.297,0.2967,0.3027,0.3032,0.304,0.3047,0.3138,0.3157,0.3173,0,0,0,0,0,0,0.2728,0.2795,0.2805,0.2844,0.2871,0.2902,0.2922,0.2928,0.2946,0.2966,0.2957,0.2961,0.3022,0.3008,0.2966,0.3084,0.3024,0.3031,0.3094,0.3112,0.3126,0.3151,0.2934,0,0,0,0,0,0.2728,0.2771,0.2812,0.2844,0.286,0.2885,0.2902,0.2927,0.2956,0.2963,0.2973,0.3005,0.3047,0.3064,0.3087,0.3129,0.3141,0.3175,0.319,0.3202,0.3225,0.3329,0.3355,0.3076,0.3075,0.3075,0,0,0.2719,0.2771,0.2788,0.2841,0.2865,0.2908,0.2895,0.2941,0.2994,0.2962,0.3028,0.3044,0.3069,0.3141,0.3167,0.3137,0.3281,0.3211,0.3221,0.3238,0.3339,0.3367,0.3391,0.3081,0.308,0.3079,0,0,0.2742,0.2768,0.2812,0.2844,0.291,0.2935,0.2949,0.2991,0.3022,0.3084,0.31,0.3159,0.3189,0.3244,0.327,0.3373,0.3352,0.3378,0.3471,0.3572,0.3596,0.3617,0.3631,0.3653,0.3388,0.3389,0.3389,0,0.2739,0.2793,0.2824,0.2881,0.2923,0.2949,0.2998,0.3039,0.3094,0.3134,0.3127,0.3239,0.3254,0.3364,0.3422,0.3407,0.3432,0.3397,0.3591,0.3613,0.3633,0.3643,0.3665,0.3395,0.3394,0.3393,0.3393,0,0.2787,0.2838,0.2868,0.2956,0.2996,0.3045,0.3114,0.3158,0.3201,0.325,0.3356,0.3394,0.3459,0.3488,0.3492,0.3645,0.3602,0.3593,0.3543,0.3667,0.3669,0.3691,0.3403,0.3401,0.3399,0.3398,0,0,0.2769,0.288,0.2892,0.2942,0.3044,0.3082,0.3181,0.3268,0.334,0.3412,0.3505,0.3613,0.3627,0.3662,0.3675,0.3777,0.393,0.3759,0.3761,0.3764,0.4107,0.3955,0.3963,0.3963,0.3969,0.3973,0.4036,0,0.2799,0.29,0.2959,0.3058,0.311,0.3178,0.3262,0.3357,0.3436,0.3531,0.3613,0.3712,0.3696,0.3746,0.3845,0.3909,0.4,0.391,0.3994,0.3995,0.3841,0.3989,0.3713,0.3738,0.4057,0.4061,0.4063,0,0.2832,0.2898,0.2986,0.3114,0.3142,0.3206,0.3339,0.3431,0.3575,0.3638,0.3747,0.3806,0.3952,0.3932,0.4106,0.405,0.4102,0.4147,0.415,0.3995,0.3887,0.3676,0.3765,0.4099,0.4096,0.4094,0.4091,0,0.2798,0.2928,0.2996,0.3037,0.3173,0.3229,0.3312,0.3456,0.3543,0.3722,0.3805,0.3945,0.4042,0.4144,0.4219,0.4193,0.4394,0.4353,0.4256,0.4241,0.4016,0.3972,0.4515,0.4515,0.4515,0.4515,0.4515,0,0.2809,0.2883,0.298,0.3013,0.3121,0.3219,0.3335,0.3452,0.3591,0.3689,0.3859,0.3954,0.4124,0.4235,0.4272,0.4313,0.443,0.4305,0.4282,0.4036,0.3996,0.4317,0.4293,0.4517,0.4516,0.4516,0.4516,0,0.2781,0.2853,0.2951,0.3063,0.311,0.3196,0.3346,0.338,0.3577,0.371,0.378,0.4008,0.4144,0.4253,0.4418,0.4375,0.4431,0.442,0.4074,0.4009,0.4186,0.4168,0.4316,0.4312,0.4308,0.4305,0.4303,0,0.2813,0.2827,0.2947,0.2982,0.3037,0.3149,0.3169,0.3356,0.3402,0.3706,0.3739,0.3977,0.407,0.4234,0.424,0.4267,0.4368,0.4009,0.3923,0.4221,0.4183,0.4169,0.4156,0.3646,0.3638,0.3632,0.3627,0,0.2796,0.2804,0.2813,0.2894,0.2937,0.3006,0.3079,0.3118,0.3307,0.3479,0.3652,0.3784,0.3949,0.3887,0.3957,0.3923,0.3972,0.3878,0.4348,0.3727,0.3592,0.3553,0.3562,0.3571,0.3577,0.3581,0.3584,0.3586,0.2721,0.2733,0.2696,0.2771,0.2828,0.2837,0.2832,0.2878,0.3005,0.3165,0.3375,0.3488,0.3577,0.3542,0.346,0.3421,0.3677,0.3536,0.3555,0.3581,0.3481,0.3347,0.3257,0.326,0.3263,0.3266,0.3268,0,0.2565,0.2563,0.2578,0.2643,0.261,0.2722,0.2723,0.2649,0.2702,0.2877,0.3004,0.2852,0.2898,0.2995,0.2881,0.2892,0.2864,0.276,0.2722,0.2781,0.2833,0.2693,0.226,0.2257,0.2253,0.225,0,0,0.2473,0.2418,0.2429,0.2385,0.2432,0.2352,0.2318,0.2251,0.2313,0.2345,0.243,0.267,0.2897,0.2509,0.2492,0.2366,0.2531,0.2266,0.3088,0.3102,0.3148,0.3311,0.3165,0,0,0,0,0]},{"header":{"parameterUnit":"m.s-1","parameterCategory":2,"la1":30.2991,"la2":30.254,"lo1":-89.0895,"lo2":-89.0444,"dx":0.0017,"dy":0.0017,"nx":28,"ny":28,"refTime":"2022-12-09T15:00:00:Z","depth":"2","parameterNumber":3,"parameterNumberName":"V-component_of_CURRENTS"},"data":[0,0,0,0,0,0,0,0,0,0,0,0,0,0,0,0,0,0,0,0,0,0,0,0,0,0,0,0,0,0,0,0,0,0,0,0,0,0,0,0,0,0,0,0,0,0,0,0,0,0,0,0,0,0,0,0,0,0,-0.0124,-0.0124,0,-0.0176,-0.0177,-0.0177,-0.0222,-0.0222,-0.0223,-0.0223,-0.0303,-0.0305,-0.0307,0,0,0,0,0,0,0,0,0,0,0,0,0,-0.0099,-0.0099,-0.0124,-0.0124,-0.0125,-0.0176,-0.0177,-0.0177,-0.0222,-0.0222,-0.0223,-0.0223,-0.0303,-0.0305,-0.0307,0,0,0,0,0,0,0,0,0,0,0,0,0,-0.0126,-0.0099,-0.0123,-0.0153,-0.0156,-0.0176,-0.0177,-0.0178,-0.0221,-0.0222,-0.0223,-0.0224,-0.0302,-0.0305,-0.0307,-0.0308,0,0,-0.0315,-0.0316,0,0,0,0,0,0,0,0,-0.0125,-0.0127,-0.0148,-0.0151,-0.0155,-0.0193,-0.0198,-0.0223,-0.0221,-0.0197,-0.0223,-0.0224,-0.0269,-0.0274,-0.0282,-0.0312,-0.0315,-0.0315,-0.0317,-0.0318,-0.0318,0,0,0,0,0,0,0,-0.0123,-0.0125,-0.0144,-0.0149,-0.0153,-0.0177,-0.0181,-0.0203,-0.0228,-0.0199,-0.0202,-0.0208,-0.0271,-0.0279,-0.0284,-0.0316,-0.0315,-0.0317,-0.0319,-0.032,-0.0363,-0.0363,0,0,0,0,0,0,-0.0114,-0.0123,-0.0143,-0.0146,-0.0141,-0.0177,-0.0181,-0.018,-0.0228,-0.0235,-0.0207,-0.021,-0.0274,-0.0281,-0.0287,-0.028,-0.0318,-0.032,-0.0322,-0.0363,-0.0363,-0.0362,0,0,0,0,0,0,-0.0113,-0.0114,-0.014,-0.0137,-0.0142,-0.0176,-0.0174,-0.0181,-0.0188,-0.0234,-0.0242,-0.0208,-0.0275,-0.0284,-0.0304,-0.0284,-0.0321,-0.0323,-0.0364,-0.0363,-0.0363,-0.0273,0,0,0,0,0,0,-0.0112,-0.0114,-0.0112,-0.0135,-0.0141,-0.0137,-0.0174,-0.0181,-0.019,-0.0194,-0.0237,-0.0245,-0.0277,-0.03,-0.0307,-0.0288,-0.0325,-0.0364,-0.0363,-0.0363,-0.0276,-0.0269,-0.0263,0,0,0,0,0,-0.011,-0.0096,-0.0112,-0.0114,-0.0137,-0.0136,-0.0141,-0.0169,-0.0189,-0.018,-0.0218,-0.0244,-0.0301,-0.0302,-0.0309,-0.0291,-0.0364,-0.0364,-0.0363,-0.0279,-0.0271,-0.0264,0,0,0,0,0,0,-0.0081,-0.01,-0.0118,-0.011,-0.0118,-0.0144,-0.0141,-0.0161,-0.0183,-0.0192,-0.0238,-0.0249,-0.026,-0.029,-0.029,-0.0304,-0.0337,-0.0337,-0.0271,-0.0263,-0.0257,-0.0227,-0.0328,0,0,0,0,0,-0.0074,-0.0071,-0.0091,-0.0084,-0.0086,-0.0113,-0.0119,-0.0135,-0.0158,-0.0168,-0.0201,-0.0238,-0.0262,-0.0274,-0.0303,-0.0306,-0.0335,-0.0301,-0.0294,-0.0289,-0.0271,-0.0293,-0.0286,-0.036,-0.036,-0.036,0,0,-0.0058,-0.0072,-0.0068,-0.0078,-0.009,-0.0076,-0.0118,-0.0116,-0.0108,-0.0174,-0.0177,-0.0216,-0.026,-0.0267,-0.0274,-0.0288,-0.0287,-0.0288,-0.0282,-0.0267,-0.0291,-0.0284,-0.0278,-0.0359,-0.0359,-0.0359,0,0,-0.0017,-0.0036,-0.0017,-0.002,-0.0033,-0.0047,-0.0042,-0.0063,-0.0076,-0.0086,-0.0132,-0.0154,-0.0196,-0.0216,-0.0233,-0.0207,-0.0255,-0.0224,-0.0161,-0.0182,-0.0176,-0.0171,-0.0212,-0.0211,-0.0217,-0.0216,-0.0216,0,-0.0001,0.0021,-0.0009,0.0009,0.0015,-0.0027,0.0004,-0.0012,-0.004,-0.0042,-0.0075,-0.0126,-0.0166,-0.0164,-0.016,-0.0188,-0.0219,-0.0183,-0.0172,-0.0167,-0.0163,-0.0207,-0.0207,-0.0212,-0.0212,-0.0213,-0.0213,0,0.0056,0.0073,0.0088,0.0096,0.0098,0.0119,0.0095,0.0093,0.0064,0.0044,0.0031,-0.0026,-0.0051,-0.0072,-0.0109,-0.0098,-0.0137,-0.0162,-0.0185,-0.015,-0.0199,-0.02,-0.0206,-0.0207,-0.0209,-0.021,0,0,0.0101,0.0124,0.013,0.0153,0.0147,0.0161,0.0174,0.018,0.0197,0.0151,0.0171,0.0116,0.008,0.0058,0.0007,-0.0014,-0.0026,-0.007,-0.0074,-0.0099,-0.009,-0.0142,-0.015,-0.005,-0.005,-0.0049,-0.014,0,0.0158,0.0218,0.0209,0.027,0.0303,0.0276,0.0298,0.0292,0.0269,0.0273,0.0213,0.0209,0.013,0.0125,0.0089,0.0008,-0.0024,0.0,-0.013,-0.0134,-0.0174,-0.0151,-0.011,-0.0188,-0.0142,-0.0142,-0.0142,0,0.0217,0.0251,0.0322,0.0368,0.038,0.0403,0.0433,0.0451,0.0437,0.042,0.0395,0.0342,0.0307,0.0235,0.0118,0.0135,0.0035,-0.0038,-0.0044,-0.012,-0.0188,-0.0215,-0.0193,-0.0145,-0.0145,-0.0145,-0.0145,0,0.027,0.033,0.0392,0.0407,0.0448,0.0472,0.0494,0.0496,0.0526,0.0522,0.0541,0.0467,0.0454,0.0324,0.016,0.0143,0.0022,-0.0023,-0.0168,-0.0174,-0.0176,-0.0183,-0.01,-0.01,-0.01,-0.01,-0.01,0,0.0331,0.0381,0.0422,0.0457,0.0527,0.0539,0.061,0.0613,0.0645,0.0702,0.0627,0.0653,0.048,0.0381,0.0206,0.0015,0.0053,-0.0148,-0.0192,-0.0148,-0.0151,-0.0142,-0.0146,-0.0103,-0.0103,-0.0102,-0.0101,0,0.0369,0.0404,0.047,0.0528,0.0553,0.0598,0.0679,0.0738,0.0761,0.0835,0.0847,0.0799,0.0677,0.0473,0.027,0.0095,-0.0094,-0.0174,-0.0124,-0.016,-0.0293,-0.0291,-0.0342,-0.0345,-0.0347,-0.0349,-0.035,0,0.0388,0.0428,0.0507,0.0546,0.057,0.065,0.0719,0.078,0.0851,0.0927,0.0973,0.09,0.0865,0.0535,0.0224,-0.0087,-0.0124,-0.0265,-0.0291,-0.0275,-0.0313,-0.0308,-0.0303,-0.0269,-0.0269,-0.027,-0.027,0,0.0396,0.042,0.0468,0.0583,0.0656,0.0763,0.0866,0.0948,0.1046,0.1131,0.1226,0.1215,0.0905,0.0627,0.0193,-0.0027,-0.0216,-0.0289,-0.0262,-0.0217,-0.0214,-0.0249,-0.0245,-0.0275,-0.0275,-0.0274,-0.0274,-0.0274,0.0371,0.0406,0.0491,0.062,0.0707,0.0879,0.1008,0.1137,0.1308,0.1456,0.141,0.1411,0.1045,0.0518,0.0135,-0.0264,-0.0254,-0.0388,-0.0383,-0.0377,-0.0356,-0.0356,-0.0442,-0.0442,-0.0443,-0.0443,-0.0443,0,0.0358,0.0433,0.0532,0.0693,0.0846,0.0904,0.1115,0.1268,0.1498,0.1594,0.1673,0.1347,0.1015,0.0592,0.0015,-0.0349,-0.0365,-0.0473,-0.0393,-0.0386,-0.0381,-0.0356,-0.0444,-0.0445,-0.0446,-0.0447,0,0,0.0335,0.0444,0.0551,0.0816,0.0942,0.1179,0.1331,0.1525,0.1652,0.1768,0.1767,0.1671,0.1162,0.0737,0.024,-0.0081,-0.015,-0.0161,-0.0121,0.004,0.005,-0.0297,-0.0248,0,0,0,0,0]}],[{"header":{"parameterUnit":"m.s-1","parameterCategory":2,"la1":30.2991,"la2":30.254,"lo1":-89.0895,"lo2":-89.0444,"dx":0.0017,"dy":0.0017,"nx":28,"ny":28,"refTime":"2022-12-09T15:00:00:Z","depth":"4","parameterNumber":2,"parameterNumberName":"U-component_of_CURRENTS"},"data":[0,0,0,0,0,0,0,0,0,0,0,0,0,0,0,0,0,0,0,0,0,0,0,0,0,0,0,0,0,0,0,0,0,0,0,0,0,0,0,0,0,0,0,0,0,0,0,0,0,0,0,0,0,0,0,0,0,0,0.1461,0.1461,0,0.1506,0.1506,0.1507,0.1568,0.1569,0.157,0.1571,0.1669,0.1671,0.1673,0,0,0,0,0,0,0,0,0,0,0,0,0,0.1416,0.1417,0.1461,0.1461,0.1462,0.1506,0.1506,0.1507,0.1568,0.1569,0.157,0.1571,0.1669,0.1671,0.1673,0,0,0,0,0,0,0,0,0,0,0,0,0,0.1447,0.1417,0.1461,0.1496,0.15,0.1505,0.1506,0.1507,0.1568,0.1569,0.157,0.1572,0.1668,0.1671,0.1673,0.1664,0,0,0.1682,0.1683,0,0,0,0,0,0,0,0,0.1445,0.1449,0.1491,0.1494,0.1498,0.1531,0.1527,0.1562,0.1567,0.1543,0.1571,0.1572,0.1626,0.1632,0.1639,0.1668,0.1672,0.1682,0.1684,0.1685,0.1686,0,0,0,0,0,0,0,0.1443,0.1447,0.148,0.1491,0.1495,0.1505,0.1512,0.1533,0.1579,0.1546,0.155,0.1552,0.1629,0.1637,0.1642,0.1674,0.1682,0.1684,0.1686,0.1687,0.1851,0.1854,0,0,0,0,0,0,0.1433,0.1445,0.1479,0.1481,0.1472,0.1505,0.1512,0.152,0.1578,0.1587,0.1551,0.1555,0.1631,0.1639,0.1646,0.1759,0.1685,0.1687,0.1689,0.1849,0.1852,0.1855,0,0,0,0,0,0,0.1432,0.1436,0.1477,0.1463,0.1468,0.1504,0.1513,0.1521,0.1559,0.1581,0.1592,0.1585,0.1633,0.1642,0.1715,0.1759,0.1689,0.1691,0.1845,0.185,0.1853,0.1907,0,0,0,0,0,0,0.1431,0.1436,0.1455,0.1462,0.1469,0.1507,0.1512,0.152,0.1556,0.1562,0.1613,0.1622,0.1634,0.1711,0.1718,0.1761,0.1693,0.1842,0.1847,0.1852,0.1902,0.1913,0.1922,0,0,0,0,0,0.1429,0.144,0.1456,0.1461,0.1489,0.1508,0.1514,0.1544,0.1556,0.1582,0.163,0.1622,0.1749,0.1715,0.1722,0.1768,0.1839,0.1846,0.1852,0.1898,0.1911,0.1922,0,0,0,0,0,0,0.1429,0.1447,0.1465,0.1482,0.1509,0.1519,0.1549,0.1557,0.1612,0.1634,0.1651,0.1664,0.1744,0.1752,0.1715,0.1834,0.1795,0.1802,0.1827,0.1839,0.1849,0.1892,0.1695,0,0,0,0,0,0.1436,0.1451,0.1474,0.1489,0.1514,0.1537,0.1554,0.1573,0.1609,0.1635,0.1678,0.1727,0.1768,0.1802,0.1841,0.19,0.1908,0.1938,0.1948,0.1956,0.1999,0.2031,0.2047,0.1875,0.1875,0.1875,0,0,0.1435,0.1449,0.1457,0.1491,0.1522,0.156,0.1553,0.1592,0.1628,0.1636,0.1728,0.1763,0.1792,0.1868,0.1904,0.1884,0.2008,0.1964,0.197,0.201,0.2039,0.2056,0.207,0.1879,0.1879,0.1878,0,0,0.1439,0.1468,0.1491,0.1522,0.157,0.159,0.1608,0.1654,0.1691,0.1768,0.1785,0.1862,0.1927,0.1967,0.1986,0.2077,0.2056,0.2081,0.2169,0.2198,0.2212,0.2225,0.2241,0.2255,0.2089,0.2089,0.2089,0,0.1446,0.1475,0.1501,0.1541,0.1574,0.1609,0.1654,0.1689,0.1754,0.1795,0.1817,0.1954,0.1981,0.2061,0.211,0.21,0.2107,0.2111,0.2209,0.2222,0.2234,0.2248,0.2262,0.2092,0.2092,0.2091,0.2091,0,0.1466,0.1508,0.153,0.1596,0.1638,0.1678,0.1733,0.1796,0.1853,0.1889,0.2007,0.2069,0.2158,0.2169,0.2177,0.2276,0.2248,0.2208,0.2171,0.2254,0.2263,0.2277,0.2097,0.2096,0.2095,0.2094,0,0,0.1445,0.1527,0.1544,0.1579,0.1673,0.1696,0.179,0.1868,0.1927,0.2029,0.212,0.2229,0.2283,0.2315,0.2331,0.2377,0.2463,0.2349,0.2349,0.2353,0.2525,0.2377,0.2377,0.2429,0.2432,0.2435,0.249,0,0.1465,0.1525,0.1578,0.1653,0.1693,0.1773,0.1848,0.1926,0.2011,0.211,0.2198,0.2293,0.2322,0.2381,0.2443,0.2458,0.2506,0.2452,0.2457,0.2459,0.2306,0.2391,0.2445,0.25,0.2503,0.2505,0.2507,0,0.148,0.1515,0.1584,0.1674,0.1707,0.177,0.1901,0.1975,0.2113,0.2186,0.2321,0.2377,0.2511,0.2501,0.2618,0.2579,0.2588,0.2588,0.2588,0.2452,0.2338,0.2407,0.2532,0.253,0.2528,0.2526,0.2525,0,0.1426,0.1524,0.1571,0.1603,0.1715,0.1785,0.1872,0.2011,0.2084,0.2251,0.2324,0.2471,0.2568,0.2619,0.2678,0.2649,0.2765,0.27,0.2576,0.2564,0.2652,0.2638,0.278,0.278,0.278,0.2779,0.2779,0,0.1403,0.1448,0.1553,0.1572,0.1642,0.1763,0.1873,0.1974,0.2143,0.2223,0.2374,0.2459,0.2608,0.2686,0.2707,0.2702,0.2793,0.2628,0.2582,0.2671,0.2659,0.266,0.2646,0.2781,0.2781,0.2781,0.278,0,0.1323,0.14,0.1439,0.156,0.1611,0.1665,0.1855,0.1928,0.2108,0.2225,0.2285,0.2485,0.2593,0.2693,0.278,0.2724,0.2724,0.269,0.2804,0.2757,0.2492,0.2481,0.255,0.2545,0.2541,0.2538,0.2536,0,0.1258,0.1282,0.1392,0.1411,0.1472,0.1588,0.167,0.1885,0.197,0.2207,0.2243,0.2427,0.253,0.2556,0.267,0.2699,0.2669,0.2644,0.2571,0.2528,0.2477,0.247,0.2464,0.253,0.2529,0.2528,0.2527,0,0.1115,0.1183,0.1215,0.1276,0.1352,0.1424,0.1572,0.1632,0.1872,0.2038,0.2158,0.2242,0.2367,0.2468,0.2525,0.2531,0.2646,0.2604,0.2611,0.2541,0.2504,0.2456,0.2453,0.2514,0.2516,0.2517,0.2518,0,0.099,0.0991,0.1057,0.1122,0.1188,0.1241,0.1348,0.1485,0.1617,0.1907,0.194,0.2142,0.2336,0.2381,0.2421,0.2439,0.2397,0.2303,0.2325,0.234,0.225,0.2171,0.2069,0,0,0,0,0,0.0835,0.0867,0.0899,0.0953,0.1019,0.1086,0.1262,0.1392,0.1639,0.167,0.1815,0.192,0.204,0.2159,0.2138,0.2311,0.2385,0.2272,0.2281,0.2441,0.2456,0.2372,0,0,0,0,0,0,0.0744,0.0755,0.0844,0.0812,0.0834,0.0906,0.1025,0.1196,0.1255,0.1506,0.1597,0.1776,0.1933,0.2019,0.2086,0.2119,0.2081,0.2412,0.2407,0.2433,0.2447,0.2459,0.2377,0,0,0,0,0]},{"header":{"parameterUnit":"m.s-1","parameterCategory":2,"la1":30.2991,"la2":30.254,"lo1":-89.0895,"lo2":-89.0444,"dx":0.0017,"dy":0.0017,"nx":28,"ny":28,"refTime":"2022-12-09T15:00:00:Z","depth":"4","parameterNumber":3,"parameterNumberName":"V-component_of_CURRENTS"},"data":[0,0,0,0,0,0,0,0,0,0,0,0,0,0,0,0,0,0,0,0,0,0,0,0,0,0,0,0,0,0,0,0,0,0,0,0,0,0,0,0,0,0,0,0,0,0,0,0,0,0,0,0,0,0,0,0,0,0,0.0026,0.0026,0,-0.0013,-0.0014,-0.0014,-0.0051,-0.0051,-0.0052,-0.0052,-0.0125,-0.0126,-0.0128,0,0,0,0,0,0,0,0,0,0,0,0,0,0.003,0.003,0.0026,0.0026,0.0026,-0.0013,-0.0014,-0.0015,-0.0051,-0.0051,-0.0052,-0.0052,-0.0124,-0.0126,-0.0128,0,0,0,0,0,0,0,0,0,0,0,0,0,0.0013,0.003,0.0026,0.0003,0.0001,-0.0013,-0.0014,-0.0015,-0.0051,-0.0051,-0.0052,-0.0053,-0.0123,-0.0126,-0.0128,-0.0131,0,0,-0.0135,-0.0136,0,0,0,0,0,0,0,0,0.0014,0.0012,0.0007,0.0005,0.0002,-0.0027,-0.0039,-0.0055,-0.0051,-0.0032,-0.0052,-0.0053,-0.0094,-0.0099,-0.0106,-0.0135,-0.0138,-0.0136,-0.0137,-0.0138,-0.0139,0,0,0,0,0,0,0,0.0015,0.0014,0.001,0.0007,0.0004,-0.0019,-0.0022,-0.0043,-0.0061,-0.0034,-0.0036,-0.0039,-0.0096,-0.0103,-0.0108,-0.0139,-0.0135,-0.0138,-0.0139,-0.014,-0.0198,-0.0198,0,0,0,0,0,0,0.0024,0.0015,0.0011,0.0009,0.0007,-0.0018,-0.0022,-0.0018,-0.006,-0.0066,-0.0039,-0.0041,-0.0099,-0.0105,-0.0111,-0.0121,-0.0138,-0.014,-0.0142,-0.0198,-0.0198,-0.0198,0,0,0,0,0,0,0.0025,0.0025,0.0013,0.0011,0.0008,-0.0018,-0.0013,-0.0018,-0.0026,-0.0063,-0.0071,-0.0041,-0.01,-0.0107,-0.0129,-0.0124,-0.0141,-0.0143,-0.0198,-0.0198,-0.0198,-0.014,0,0,0,0,0,0,0.0025,0.0025,0.0027,0.0012,0.0009,0.0013,-0.0013,-0.0019,-0.0027,-0.003,-0.0068,-0.0075,-0.0101,-0.0125,-0.0131,-0.0128,-0.0145,-0.0198,-0.0198,-0.0198,-0.0142,-0.0138,-0.0135,0,0,0,0,0,0.0026,0.0038,0.0028,0.0027,0.0014,0.0014,0.001,-0.0011,-0.0026,-0.0022,-0.0053,-0.0074,-0.0131,-0.0127,-0.0134,-0.0131,-0.0198,-0.0198,-0.0198,-0.0143,-0.0139,-0.0135,0,0,0,0,0,0,0.0041,0.0035,0.0024,0.0033,0.0026,0.0008,0.0008,-0.0007,-0.0027,-0.0031,-0.0072,-0.0081,-0.01,-0.0124,-0.0118,-0.0151,-0.0169,-0.0171,-0.0125,-0.0122,-0.0118,-0.0112,-0.0147,0,0,0,0,0,0.0046,0.0057,0.0042,0.0053,0.0048,0.0028,0.0022,0.0013,-0.0005,-0.0015,-0.0044,-0.0078,-0.0106,-0.012,-0.0147,-0.0159,-0.02,-0.0165,-0.0162,-0.0159,-0.016,-0.0218,-0.022,-0.0199,-0.0199,-0.0199,0,0,0.0058,0.0055,0.0061,0.0057,0.0047,0.0051,0.0023,0.0027,0.0028,-0.002,-0.0031,-0.0066,-0.0108,-0.0125,-0.0136,-0.0144,-0.0185,-0.0159,-0.0156,-0.0159,-0.0218,-0.022,-0.0222,-0.0199,-0.0199,-0.0199,0,0,0.0089,0.008,0.0096,0.0094,0.0087,0.0074,0.0078,0.0061,0.0048,0.0038,-0.0003,-0.0034,-0.0069,-0.0103,-0.0124,-0.012,-0.0167,-0.0129,-0.0104,-0.0159,-0.0162,-0.0164,-0.0213,-0.0221,-0.0125,-0.0125,-0.0125,0,0.0097,0.0117,0.0101,0.0114,0.0114,0.0088,0.0103,0.0089,0.0068,0.0056,0.0043,-0.0027,-0.006,-0.0095,-0.0095,-0.0112,-0.0151,-0.0112,-0.0155,-0.0158,-0.0161,-0.0212,-0.022,-0.0122,-0.0123,-0.0123,-0.0123,0,0.0137,0.0151,0.0162,0.0167,0.0165,0.0179,0.0157,0.0153,0.0132,0.0109,0.0074,0.0023,-0.0019,-0.0037,-0.0064,-0.0104,-0.0127,-0.0143,-0.0161,-0.016,-0.0213,-0.0223,-0.0118,-0.0119,-0.012,-0.0121,0,0,0.0159,0.0185,0.0187,0.0203,0.0196,0.0203,0.0202,0.019,0.0189,0.0151,0.0137,0.0076,0.004,0.0013,-0.0031,-0.0082,-0.0138,-0.0118,-0.0122,-0.0161,-0.0261,-0.0233,-0.0242,-0.0164,-0.0165,-0.0166,-0.0287,0,0.0192,0.0234,0.0232,0.0269,0.0286,0.0266,0.0271,0.0256,0.0228,0.0208,0.0141,0.0112,0.0061,0.0045,-0.0015,-0.0109,-0.0163,-0.0104,-0.0264,-0.0268,-0.0237,-0.0252,-0.0171,-0.0295,-0.0297,-0.0299,-0.03,0,0.022,0.025,0.0294,0.0327,0.0331,0.0347,0.0346,0.0352,0.031,0.0286,0.0233,0.0179,0.0099,0.0063,-0.0102,-0.0063,-0.0157,-0.0232,-0.0239,-0.024,-0.0258,-0.03,-0.0319,-0.0318,-0.0317,-0.0315,-0.0314,0,0.0243,0.0288,0.0328,0.0339,0.037,0.0385,0.0398,0.0375,0.0392,0.0336,0.0331,0.0219,0.0178,0.0037,-0.0112,-0.0115,-0.0292,-0.0316,-0.0381,-0.0381,-0.0396,-0.0392,-0.0433,-0.0433,-0.0433,-0.0433,-0.0432,0,0.0271,0.0304,0.0348,0.0376,0.0434,0.0431,0.0479,0.0469,0.0464,0.0486,0.0381,0.0362,0.0169,0.0051,-0.01,-0.0265,-0.0287,-0.0383,-0.0411,-0.0368,-0.036,-0.0403,-0.0398,-0.0437,-0.0436,-0.0435,-0.0434,0,0.0286,0.0312,0.0376,0.043,0.0452,0.0497,0.0564,0.0601,0.0573,0.0597,0.0587,0.0464,0.0301,0.011,-0.0119,-0.0229,-0.0401,-0.0452,-0.0384,-0.0406,-0.0461,-0.0452,-0.0552,-0.0552,-0.0552,-0.0552,-0.0552,0,0.0299,0.0336,0.0427,0.0485,0.0517,0.0588,0.0649,0.0661,0.0699,0.0662,0.0677,0.0534,0.043,0.0136,-0.0084,-0.0371,-0.0405,-0.0493,-0.0492,-0.0456,-0.0475,-0.0465,-0.0456,-0.0552,-0.0552,-0.0552,-0.0552,0,0.0343,0.0376,0.0435,0.0554,0.0637,0.0731,0.0806,0.0837,0.0848,0.0822,0.0762,0.0598,0.0417,0.0161,-0.0052,-0.0261,-0.0439,-0.0494,-0.0496,-0.0496,-0.0458,-0.0474,-0.0465,-0.0552,-0.0552,-0.0552,-0.0552,0,0.0394,0.0437,0.0526,0.0626,0.0739,0.0839,0.0872,0.0914,0.0944,0.0887,0.0865,0.065,0.052,0.0218,0.0016,-0.0181,-0.0242,-0.0302,-0.0315,-0.0318,-0.0213,-0.0128,-0.0148,0,0,0,0,0,0.0449,0.0502,0.0596,0.0714,0.0822,0.0884,0.0968,0.0986,0.098,0.0964,0.0917,0.0747,0.0438,0.0291,0.01,-0.0006,-0.0287,-0.0237,-0.0365,-0.0552,-0.0552,-0.0466,0,0,0,0,0,0,0.0494,0.0583,0.0604,0.0764,0.0848,0.0976,0.103,0.103,0.1009,0.0965,0.0805,0.0709,0.0405,0.0553,0.0099,0.0034,-0.007,-0.0391,-0.0395,-0.0553,-0.0552,-0.0552,-0.0464,0,0,0,0,0]}]]